User: anonymous   Login
Location: Bowman Observatory
(41.0326°N, 73.6210°W)
Time: 19:37:21
(UTC-04:00)
Language:

Cosmos 2297 - Orbit

View from above orbital plane
View from above orbital plane
View from above satellite
View from above satellite

Ground track
Ground track

The orbit data is extracted from the following two-line orbital elements,

1 23404U 94077A   17112.87033683 -.00000079 +00000-0 -16982-4 0  9998
2 23404 071.0123 048.7746 0017568 235.4993 124.4470 14.13479430156210
Epoch (UTC): 22 April 2017 20:53:17
Eccentricity: 0.0017568
inclination: 71.0123°
perigee height: 835 km
apogee height: 860 km
right ascension of ascending node: 48.7746°
argument of perigee: 235.4993°
revolutions per day: 14.13479430
mean anomaly at epoch: 124.4470°
orbit number at epoch: 15621

The dashed part of the orbit path shows where the satellite is in the earth's shadow,  

DLR